Date,TemperatureHighF,TemperatureAvgF,TemperatureLowF,DewpointHighF,DewpointAvgF,DewpointLowF,HumidityHigh,HumidityAvg,HumidityLow,PressureMaxIn,PressureMinIn,WindSpeedMaxMPH,WindSpeedAvgMPH,GustSpeedMaxMPH,PrecipitationSumIn
2013-5-1,40.9,37.5,34.0,35.4,33.0,29.9,87,84,78,30.70,30.48,6,2,6,0.25
2013-5-2,49.1,41.2,36.4,35.0,29.4,25.6,84,64,45,30.78,30.66,14,6,14,0.01
2013-5-3,39.1,36.5,33.7,33.1,28.9,24.5,83,74,62,30.65,30.39,12,6,12,0.00
2013-5-4,48.1,40.8,34.9,41.8,36.3,30.5,88,84,78,30.41,30.34,10,5,10,0.03
2013-5-5,64.3,49.4,40.3,52.0,42.5,35.8,85,78,64,30.42,30.32,6,2,6,0.00
2013-5-6,82.8,62.0,46.6,55.4,48.8,42.2,85,65,37,30.36,30.25,5,2,5,0.00
2013-5-7,83.5,65.1,49.3,56.1,50.1,43.7,82,60,37,30.31,30.19,7,1,7,0.00
2013-5-8,72.7,62.9,56.3,56.0,52.6,47.2,88,70,51,30.25,30.17,5,1,5,0.33
2013-5-9,61.2,55.9,46.4,55.4,50.3,34.9,88,82,64,30.34,30.19,16,5,16,0.04
2013-5-10,67.3,50.1,39.6,37.9,33.8,30.6,71,55,33,30.36,30.15,10,3,10,0.00
2013-5-11,56.3,50.7,43.0,41.2,30.0,22.4,69,47,30,30.40,30.13,15,7,15,0.04
2013-5-12,66.1,47.8,34.7,27.3,24.1,20.3,64,43,23,30.48,30.33,10,3,10,0.00
2013-5-13,79.9,58.2,37.3,51.9,38.9,25.5,75,51,37,30.35,29.89,10,2,10,0.00
2013-5-14,97.0,74.4,52.6,58.3,46.7,30.6,75,43,13,29.96,29.70,20,4,20,0.00
2013-5-15,86.0,67.1,54.4,53.7,47.5,41.2,67,50,32,30.18,29.96,9,3,9,0.01
2013-5-16,62.3,58.6,55.8,46.8,45.2,44.2,65,61,57,30.11,30.09,2,0,2,0.00
2013-5-25,59.9,57.0,54.7,51.5,49.3,47.3,79,76,72,30.49,30.44,7,3,7,0.01
2013-5-26,57.2,54.5,51.3,50.8,47.1,43.7,80,76,72,30.45,30.26,7,3,7,0.00
2013-5-27,61.6,58.1,55.4,55.5,52.7,50.0,88,82,79,30.27,30.07,9,3,9,0.00
2013-5-28,62.3,58.2,54.4,57.7,54.8,51.5,92,88,85,30.07,29.96,4,1,4,0.06
2013-5-29,76.3,64.6,54.2,71.1,60.8,51.8,94,88,80,30.04,29.87,5,2,5,0.12
2013-5-30,75.8,69.7,64.6,67.0,64.2,61.2,92,83,72,29.91,29.76,8,3,8,0.28
2013-5-31,76.0,68.9,63.0,61.8,58.2,54.5,87,70,53,29.79,29.75,14,4,14,0.06